Dewpoint
62 63 65 66 66 64 58 58 59 60 61 62 62 62 63 65 66 68 68 69 69 69 70 70 70 71 71 71 71 72 72 72 72 72 72 72 72 72 72 72 72 73 73 73 73 73 74 75 75 76 76 76 76 76 76 76 76 76 76 76 76 76 75
62 63 63 66 66 65 63 59 59 60 61 62 62 63 63 65 66 67 68 69 69 69 70 70 70 70 71 71 72 72 72 72 72 73 72 72 73 72 72 72 72 73 73 73 74 74 75 75 75 75 76 76 76 76 75 76 76 76 76 76 75 76 76
60 63 62 65 66 65 65 63 60 60 61 61 62 62 62 65 66 67 68 68 69 69 70 70 70 70 71 71 72 72 72 72 72 72 72 71 72 71 72 72 72 73 73 73 74 74 75 75 75 75 76 76 76 76 76 76 76 76 76 76 76 75 75
60 60 61 65 68 67 67 66 64 61 61 62 62 62 62 65 66 67 68 68 68 69 69 70 70 70 70 71 71 72 72 72 72 72 72 71 72 72 72 72 73 73 73 73 73 74 74 75 75 75 77 76 76 76 75 76 76 76 75 76 76 75 75
63 62 66 66 67 66 67 68 68 66 62 63 63 64 63 64 66 66 67 68 68 68 68 69 69 70 70 71 71 71 72 72 72 72 72 72 72 73 72 72 72 72 73 73 74 75 75 75 74 75 75 76 75 75 76 76 76 76 76 75 75 75 75
65 65 66 67 67 67 68 69 69 68 66 65 65 65 65 66 66 66 67 68 68 69 69 70 69 70 70 70 70 71 72 72 73 73 72 72 72 72 72 72 72 72 72 73 74 74 74 74 74 74 74 74 75 75 75 75 75 75 75 75 75 75 74
66 65 65 66 67 67 68 68 69 70 69 69 70 69 68 67 67 67 68 68 69 69 69 70 70 69 70 71 71 71 71 71 72 72 72 72 72 72 72 72 73 72 72 73 73 74 74 74 74 74 74 74 75 74 75 76 76 76 76 76 75 75 75
66 65 66 66 67 68 68 67 69 70 70 69 69 70 69 69 69 69 68 68 69 69 69 69 70 70 70 71 71 70 71 71 71 72 72 72 72 72 72 72 73 73 73 72 73 73 73 74 74 74 74 73 74 75 75 76 76 75 75 75 75 75 74
66 67 67 67 67 68 68 68 69 69 69 69 69 70 71 70 70 69 69 70 70 69 69 69 70 70 70 71 71 71 71 71 71 72 72 71 71 71 71 71 72 73 72 72 72 73 73 73 73 74 75 74 74 75 75 75 75 75 75 75 75 75 75
65 65 66 67 68 68 68 68 69 68 68 68 68 69 70 70 71 71 70 70 70 71 71 71 71 71 71 71 71 71 71 71 71 71 71 71 71 71 71 71 71 72 72 71 71 72 73 73 73 73 74 74 74 74 75 75 75 75 75 75 75 75 75
64 65 65 66 66 67 67 68 68 68 68 68 69 69 69 69 70 71 71 72 71 71 72 72 73 72 72 72 71 72 72 71 71 71 71 71 71 70 71 71 70 71 71 71 71 71 71 73 73 73 73 73 74 74 74 74 75 75 75 75 75 75 75
63 63 64 65 65 66 66 67 67 67 68 68 69 69 68 69 70 70 71 71 72 72 72 73 72 72 73 72 72 72 72 71 71 71 71 70 70 70 70 70 70 70 70 71 71 71 70 71 71 72 72 73 74 74 74 74 74 75 75 74 75 75 75
62 63 64 64 65 65 66 66 66 67 68 69 69 69 69 69 70 70 70 70 71 72 72 72 72 72 72 73 73 72 72 72 72 72 71 71 71 70 70 70 70 69 69 70 70 70 69 69 70 72 72 72 73 73 74 74 74 74 75 74 75 75 75
62 62 62 62 63 65 65 66 66 66 67 68 69 69 69 70 70 70 70 70 70 71 71 72 72 71 71 71 71 70 71 71 72 72 72 72 72 72 70 70 70 70 70 70 70 69 68 68 68 69 71 71 72 73 73 74 73 74 74 74 74 74 74
59 60 61 61 62 63 64 65 65 66 67 67 68 68 68 68 69 69 69 70 71 71 71 72 71 71 71 71 70 70 70 70 72 72 71 71 71 71 71 71 70 70 70 70 70 68 69 68 68 68 69 70 71 72 72 72 72 73 73 73 73 73 73
58 59 60 60 61 62 63 64 64 65 65 66 67 67 67 68 68 69 69 70 70 71 71 71 71 70 70 70 70 70 71 71 71 71 71 70 70 70 70 71 71 70 69 69 68 70 70 70 69 68 68 68 70 71 71 72 72 72 69 70 73 73 72
58 58 59 60 60 61 62 62 62 63 64 64 65 66 66 67 67 68 68 68 68 69 70 71 70 71 71 70 71 71 70 71 71 71 71 70 71 70 70 70 70 70 71 70 70 70 70 70 68 68 67 67 67 68 69 70 71 69 66 66 67 72 73
56 57 58 59 59 60 61 61 62 62 62 63 63 64 65 66 66 66 67 67 68 69 69 70 70 70 70 71 70 70 71 71 70 70 70 70 70 70 71 71 71 70 70 70 69 70 69 69 68 69 67 66 66 67 67 68 69 65 64 65 64 68 72
56 55 56 58 58 58 59 58 59 61 61 62 62 63 63 64 64 65 66 66 67 68 68 68 68 68 68 69 70 70 70 71 71 71 71 71 71 71 71 70 70 70 71 71 71 71 70 70 69 69 68 68 68 66 66 67 66 63 63 63 63 63 68
50 52 52 54 55 56 57 56 56 57 58 59 60 59 60 60 60 61 62 63 64 65 66 67 67 68 68 68 69 69 69 70 70 70 71 71 71 71 71 71 71 71 71 72 72 71 70 70 69 69 69 69 69 69 67 67 66 62 61 61 61 62 64
48 50 51 52 54 54 55 55 55 56 56 57 58 57 56 56 56 57 57 58 58 60 62 63 64 65 66 66 66 67 68 68 67 66 67 68 69 70 70 71 71 72 71 72 71 70 70 70 71 71 70 69 69 70 69 67 65 62 60 58 58 60 63
47 49 51 52 51 52 52 53 54 54 56 57 56 56 56 56 55 55 55 56 56 57 58 59 60 61 63 63 64 65 66 66 67 66 65 66 68 68 68 69 70 70 71 72 72 72 72 72 72 71 71 71 70 69 70 70 65 61 60 58 58 59 65
47 49 50 50 49 49 51 51 52 53 55 55 55 56 55 55 55 55 55 55 56 57 57 58 58 60 60 61 62 63 64 65 65 66 67 65 65 65 66 67 68 70 71 71 71 72 72 72 72 73 72 72 72 71 71 70 68 60 59 59 57 59 66
47 47 48 48 49 50 50 51 52 53 53 54 55 55 55 55 55 55 55 55 55 55 56 57 57 58 59 59 60 61 62 63 63 63 64 65 66 66 66 67 68 68 69 71 70 70 71 71 71 72 72 72 72 72 72 72 70 62 57 56 56 62 67
47 47 48 49 50 50 51 52 52 52 53 53 53 54 55 55 55 54 54 55 54 55 56 57 57 57 58 58 59 60 61 62 62 62 62 63 64 65 66 67 67 68 68 69 70 70 71 71 71 72 73 73 72 73 73 73 71 63 58 56 55 61 66
47 48 49 49 50 51 51 53 51 51 51 52 53 54 54 53 54 56 54 54 54 54 55 56 57 57 57 57 58 59 60 60 61 61 61 61 62 64 66 67 68 67 67 68 69 69 70 71 71 71 71 72 72 72 72 72 73 71 60 56 55 55 66
48 49 49 49 51 53 49 49 49 50 50 52 53 53 54 53 53 54 55 54 54 55 55 56 57 56 56 56 57 57 58 59 59 59 60 61 62 63 64 65 66 67 67 67 68 69 69 69 69 69 70 70 71 72 71 72 72 71 58 55 53 54 60
49 50 51 53 52 51 49 48 49 49 49 51 52 53 53 53 53 54 53 53 53 55 56 57 56 55 55 55 56 57 58 58 58 59 58 60 60 60 61 63 64 66 67 68 68 68 67 67 66 66 69 70 71 71 71 72 72 71 63 59 56 55 55
51 49 48 49 49 50 48 48 48 48 49 50 51 52 54 53 53 53 53 52 54 55 56 57 55 54 55 55 55 57 58 58 57 56 57 58 59 59 60 62 62 62 64 66 67 66 66 66 66 67 69 69 70 70 71 72 72 69 70 60 54 53 54
51 50 48 48 48 49 50 48 48 49 50 50 52 52 53 53 53 53 52 52 55 55 57 56 56 54 54 56 55 55 57 57 56 56 56 57 58 60 59 60 61 62 62 63 64 64 64 65 67 67 68 67 66 67 69 71 72 70 66 63 56 53 53
49 49 50 49 48 50 48 47 48 48 49 50 51 51 52 52 52 53 52 52 56 55 55 56 56 54 53 53 54 55 56 56 55 55 55 55 57 57 59 59 60 60 61 61 62 62 62 63 64 64 65 66 65 66 67 69 71 70 66 62 59 57 56
47 48 47 48 49 49 48 48 49 49 49 50 50 51 53 51 51 52 52 53 54 54 55 56 56 55 54 54 55 54 56 55 53 53 54 55 55 56 58 57 58 60 60 59 59 60 61 61 62 62 62 63 64 64 66 68 69 68 68 68 66 62 61
47 47 47 46 48 50 48 49 48 49 51 50 50 50 51 51 52 53 53 54 52 53 55 56 55 55 54 53 54 55 56 56 55 53 53 53 53 53 56 56 56 57 58 58 58 57 59 59 60 60 61 61 62 63 65 66 67 67 67 67 67 67 68
46 47 48 48 49 48 49 49 49 50 50 50 50 51 51 51 52 52 53 53 53 53 55 56 55 53 53 53 53 55 57 56 57 56 54 53 54 52 53 54 54 55 55 55 55 54 54 55 56 57 57 58 60 62 63 64 65 65 62 63 63 63 64
47 47 47 46 47 49 49 50 50 50 51 51 50 51 51 52 52 53 53 53 54 54 55 55 55 54 53 54 54 55 56 55 55 55 55 54 54 54 54 55 53 54 55 54 56 55 52 54 54 56 55 57 59 61 61 60 60 61 53 57 51 55 58
47 46 46 47 49 50 51 51 50 51 51 50 51 52 52 52 52 53 53 54 54 54 55 55 54 53 54 55 55 55 54 54 53 54 54 52 52 53 53 55 51 52 54 52 55 53 50 51 55 55 55 56 58 60 59 58 59 52 46 45 45 44 44
45 45 47 49 49 49 49 50 52 52 52 51 53 52 52 52 52 52 53 53 53 53 53 53 53 53 53 54 54 54 54 53 53 53 54 53 52 53 53 53 54 48 47 49 52 49 45 44 45 46 49 55 56 57 55 53 50 48 45 43 42 42 42
45 45 48 49 48 49 50 51 51 51 52 51 52 51 51 52 51 51 52 52 52 52 51 51 51 51 52 54 54 54 54 53 54 53 53 53 53 54 54 53 53 54 49 47 48 48 46 44 44 45 47 47 49 55 56 53 50 46 43 43 43 42 42